Location: Newark
(46.7000°N, 60.6000°W)
Time: 03:22:02
(UTC+00:00)

A-11 Canister half - Pass Details

Date: 01 November 2020
Orbit: 1525 x 1683 km, 47.3° (Epoch: 23 November)

Event Time Altitude Azimuth Distance (km) Brightness Sun altitude
Rises 14:42:08 0° 174° (S) 4,841 12.9 26.9°
Reaches altitude 10° 14:47:24 10° 151° (SSE) 3,825 12.7 27.2°
Maximum altitude 14:51:45 14° 124° (SE) 3,491 11.8 27.4°
Drops below altitude 10° 14:56:02 10° 97° (E) 3,775 11.4 27.6°
Sets 15:01:06 0° 74° (ENE) 4,733 11.5 27.8°
